Вернуться в каталог

ONEWEB-0419

АктивенСвязьPO
NORAD 50494·PAYLOAD·🇬🇧 United Kingdom

Запущен Dec 27, 2021 с Baikonur Cosmodrome

Loading…

Ближайшие Пролёты (ближайшие 24 часа)

TLE

СвежийSource: CelesTrak SupGP

Эпоха: Sep 14, 2026, 18:32 UTC

1 50494C 21132AB  26257.77236526 -.00002463  00000+0 -64034-2 0  2573
2 50494  87.9174 317.6674 0001772 105.0402 345.0793 13.17090995    19

Отслеживайте ONEWEB-0419 в реальном времени с AllMySat

Download on the App Store